Location: Skalnate Pleso
(49.1889°N, 20.2450°E)
Time: 22:07:44
(UTC+01:00)

SL-16 R/B - Pass Details

Date: 19 November 2019
Orbit: 842 x 846 km, 71.0° (Epoch: 12 December)

Event Time Altitude Azimuth Distance (km) Brightness Sun altitude
Exits shadow 05:26:11 20° 293° (WNW) 1,853 3.4 -14.2°
Maximum altitude 05:28:33 27° 257° (WSW) 1,575 3.1 -13.9°
Drops below altitude 10° 05:33:12 10° 201° (SSW) 2,462 4.6 -13.1°
Sets 05:35:58 0° 189° (S) 3,392 5.4 -12.7°
